Location: Clarion
(42.7316°N, 93.7330°W)
Time: 08:43:43
(UTC+00:00)

Cosmos 1656 Rocket - Pass Details

Date: 22 April 2026
Orbit: 794 x 843 km, 71.1° (Epoch: 17 May)

Event Time Altitude Azimuth Distance (km) Brightness Sun altitude
Rises 02:32:36 0° 336° (NNW) 3,323 7.8 -15.4°
Reaches altitude 10° 02:35:00 10° 337° (NNW) 2,395 6.9 -15.8°
Maximum altitude 02:40:30 84° 66° (ENE) 824 3.6 -16.6°
Enters shadow 02:43:51 25° 153° (SSE) 1,608 4.7 -17.1°
